Time,TemperatureF,DewpointF,PressureIn,WindDirection,WindDirectionDegrees,WindSpeedMPH,WindSpeedGustMPH,Humidity,HourlyPrecipIn,Conditions,Clouds,dailyrainin,SoftwareType,DateUTC
2013-01-09 00:01:00,38.5,34.9,30.43,SSW,207,3.0,4.0,87,0.00,,,0.00,meteohub,2013-01-09 05:01:00,
2013-01-09 00:03:00,38.5,34.9,30.43,SSW,210,3.0,4.0,87,0.00,,,0.00,meteohub,2013-01-09 05:03:00,
2013-01-09 00:08:00,38.5,34.9,30.43,SW,214,4.0,4.0,87,0.00,,,0.00,meteohub,2013-01-09 05:08:00,
2013-01-09 00:13:00,38.5,34.9,30.43,SW,219,5.0,5.0,87,0.00,,,0.00,meteohub,2013-01-09 05:13:00,
2013-01-09 00:18:00,38.1,34.5,30.43,SW,228,6.0,6.0,87,0.00,,,0.00,meteohub,2013-01-09 05:18:00,
2013-01-09 00:23:00,38.1,34.5,30.42,SW,236,5.0,7.0,87,0.00,,,0.00,meteohub,2013-01-09 05:23:00,
2013-01-09 00:28:00,38.7,34.9,30.42,WSW,238,3.0,7.0,86,0.00,,,0.00,meteohub,2013-01-09 05:28:00,
2013-01-09 00:33:00,38.7,34.9,30.42,WSW,249,3.0,7.0,86,0.00,,,0.00,meteohub,2013-01-09 05:33:00,
2013-01-09 00:38:00,38.8,34.7,30.42,WSW,257,5.0,6.0,85,0.00,,,0.00,meteohub,2013-01-09 05:38:00,
2013-01-09 00:43:00,38.8,34.7,30.42,WSW,242,5.0,5.0,85,0.00,,,0.00,meteohub,2013-01-09 05:43:00,
2013-01-09 00:49:00,38.8,34.7,30.42,WSW,241,6.0,6.0,85,0.00,,,0.00,meteohub,2013-01-09 05:49:00,
2013-01-09 00:54:00,38.5,34.7,30.43,WSW,246,8.0,8.0,86,0.00,,,0.00,meteohub,2013-01-09 05:54:00,
2013-01-09 00:59:00,38.1,34.3,30.43,WSW,247,7.0,8.0,86,0.00,,,0.00,meteohub,2013-01-09 05:59:00,
2013-01-09 01:04:00,37.8,34.2,30.43,WSW,240,8.0,9.0,87,0.00,,,0.00,meteohub,2013-01-09 06:04:00,
2013-01-09 01:09:00,37.8,34.0,30.43,SW,231,8.0,9.0,86,0.00,,,0.00,meteohub,2013-01-09 06:09:00,
2013-01-09 01:14:00,37.8,34.0,30.43,WSW,245,6.0,9.0,86,0.00,,,0.00,meteohub,2013-01-09 06:14:00,
2013-01-09 01:19:00,37.9,33.8,30.43,WSW,256,7.0,8.0,85,0.00,,,0.00,meteohub,2013-01-09 06:19:00,
2013-01-09 01:24:00,37.9,33.8,30.43,West,259,6.0,8.0,85,0.00,,,0.00,meteohub,2013-01-09 06:24:00,
2013-01-09 01:29:00,37.8,34.0,30.43,WSW,254,6.0,7.0,86,0.00,,,0.00,meteohub,2013-01-09 06:29:00,
2013-01-09 01:34:00,37.8,34.0,30.43,WSW,238,4.0,7.0,86,0.00,,,0.00,meteohub,2013-01-09 06:34:00,
2013-01-09 01:39:00,37.8,34.0,30.44,SW,232,5.0,7.0,86,0.00,,,0.00,meteohub,2013-01-09 06:39:00,
2013-01-09 01:44:00,37.6,33.8,30.44,SW,236,8.0,8.0,86,0.00,,,0.00,meteohub,2013-01-09 06:44:00,
2013-01-09 01:49:00,37.4,33.6,30.44,WSW,256,7.0,8.0,86,0.00,,,0.00,meteohub,2013-01-09 06:49:00,
2013-01-09 01:54:00,37.2,33.8,30.43,SW,230,5.0,8.0,87,0.00,,,0.00,meteohub,2013-01-09 06:54:00,
2013-01-09 01:59:00,37.0,33.6,30.44,SW,236,6.0,8.0,87,0.00,,,0.00,meteohub,2013-01-09 06:59:00,
2013-01-09 02:04:00,37.0,33.6,30.43,SW,233,6.0,7.0,87,0.00,,,0.00,meteohub,2013-01-09 07:04:00,
2013-01-09 02:09:00,37.0,33.6,30.43,SW,234,6.0,7.0,87,0.00,,,0.00,meteohub,2013-01-09 07:09:00,
2013-01-09 02:14:00,36.9,33.4,30.43,WSW,239,6.0,7.0,87,0.00,,,0.00,meteohub,2013-01-09 07:14:00,
2013-01-09 02:19:00,36.9,33.4,30.44,WSW,249,7.0,8.0,87,0.00,,,0.00,meteohub,2013-01-09 07:19:00,
2013-01-09 02:24:00,36.9,33.4,30.44,West,260,6.0,8.0,87,0.00,,,0.00,meteohub,2013-01-09 07:24:00,
2013-01-09 02:29:00,36.7,33.4,30.43,West,260,4.0,8.0,88,0.00,,,0.00,meteohub,2013-01-09 07:29:00,
2013-01-09 02:34:00,36.5,33.6,30.43,WSW,252,6.0,8.0,89,0.00,,,0.00,meteohub,2013-01-09 07:34:00,
2013-01-09 02:39:00,36.3,33.4,30.44,WSW,252,7.0,7.0,89,0.00,,,0.00,meteohub,2013-01-09 07:39:00,
2013-01-09 02:44:00,36.3,33.4,30.44,West,267,6.0,7.0,89,0.00,,,0.00,meteohub,2013-01-09 07:44:00,
2013-01-09 02:49:00,36.3,33.1,30.44,West,269,5.0,7.0,88,0.00,,,0.00,meteohub,2013-01-09 07:49:00,
2013-01-09 02:54:00,36.5,33.3,30.44,West,260,5.0,7.0,88,0.00,,,0.00,meteohub,2013-01-09 07:54:00,
2013-01-09 02:59:00,36.5,33.1,30.44,West,262,4.0,7.0,87,0.00,,,0.00,meteohub,2013-01-09 07:59:00,
2013-01-09 03:04:00,36.7,33.3,30.44,West,263,5.0,7.0,87,0.00,,,0.00,meteohub,2013-01-09 08:04:00,
2013-01-09 03:09:00,36.7,32.9,30.44,West,269,4.0,7.0,86,0.00,,,0.00,meteohub,2013-01-09 08:09:00,
2013-01-09 03:14:00,36.7,32.9,30.44,WSW,252,4.0,6.0,86,0.00,,,0.00,meteohub,2013-01-09 08:14:00,
2013-01-09 03:19:00,36.9,33.1,30.44,WSW,256,5.0,6.0,86,0.00,,,0.00,meteohub,2013-01-09 08:19:00,
2013-01-09 03:24:00,36.7,32.9,30.44,West,260,3.0,5.0,86,0.00,,,0.00,meteohub,2013-01-09 08:24:00,
2013-01-09 03:29:00,36.7,33.3,30.44,West,263,4.0,5.0,87,0.00,,,0.00,meteohub,2013-01-09 08:29:00,
2013-01-09 03:34:00,36.7,33.3,30.44,WSW,258,4.0,5.0,87,0.00,,,0.00,meteohub,2013-01-09 08:34:00,
2013-01-09 03:38:00,36.7,33.3,30.43,West,259,2.0,5.0,87,0.00,,,0.00,meteohub,2013-01-09 08:38:00,
2013-01-09 03:43:00,36.5,33.1,30.44,West,260,2.0,4.0,87,0.00,,,0.00,meteohub,2013-01-09 08:43:00,
2013-01-09 03:48:00,36.3,32.9,30.43,WSW,245,1.0,4.0,87,0.00,,,0.00,meteohub,2013-01-09 08:48:00,
2013-01-09 03:53:00,36.3,32.9,30.43,WSW,252,1.0,3.0,87,0.00,,,0.00,meteohub,2013-01-09 08:53:00,
2013-01-09 03:58:00,36.1,32.9,30.43,WSW,252,1.0,3.0,88,0.00,,,0.00,meteohub,2013-01-09 08:58:00,
2013-01-09 04:03:00,36.0,32.7,30.43,WSW,252,0.0,2.0,88,0.00,,,0.00,meteohub,2013-01-09 09:03:00,
2013-01-09 04:08:00,35.6,32.4,30.42,WSW,252,0.0,2.0,88,0.00,,,0.00,meteohub,2013-01-09 09:08:00,
2013-01-09 04:13:00,35.4,32.2,30.42,WSW,252,0.0,2.0,88,0.00,,,0.00,meteohub,2013-01-09 09:13:00,
2013-01-09 04:18:00,35.4,32.5,30.42,WSW,243,1.0,1.0,89,0.00,,,0.00,meteohub,2013-01-09 09:18:00,
2013-01-09 04:23:00,35.4,32.5,30.42,SW,233,2.0,2.0,89,0.00,,,0.00,meteohub,2013-01-09 09:23:00,
2013-01-09 04:28:00,35.4,32.5,30.43,WSW,246,1.0,2.0,89,0.00,,,0.00,meteohub,2013-01-09 09:28:00,
2013-01-09 04:33:00,35.4,32.7,30.43,West,267,1.0,2.0,90,0.00,,,0.00,meteohub,2013-01-09 09:33:00,
2013-01-09 04:38:00,35.1,32.4,30.43,WSW,252,1.0,2.0,90,0.00,,,0.00,meteohub,2013-01-09 09:38:00,
2013-01-09 04:43:00,35.1,32.4,30.43,WNW,291,1.0,2.0,90,0.00,,,0.00,meteohub,2013-01-09 09:43:00,
2013-01-09 04:48:00,35.1,32.4,30.43,West,273,3.0,3.0,90,0.00,,,0.00,meteohub,2013-01-09 09:48:00,
2013-01-09 04:53:00,35.1,32.4,30.43,West,263,5.0,5.0,90,0.00,,,0.00,meteohub,2013-01-09 09:53:00,
2013-01-09 04:59:00,35.4,32.7,30.43,WSW,249,5.0,5.0,90,0.00,,,0.00,meteohub,2013-01-09 09:59:00,
2013-01-09 05:03:00,35.4,32.5,30.43,West,263,4.0,6.0,89,0.00,,,0.00,meteohub,2013-01-09 10:03:00,
2013-01-09 05:08:00,35.4,32.5,30.42,West,276,0.0,6.0,89,0.00,,,0.00,meteohub,2013-01-09 10:08:00,
2013-01-09 05:14:00,35.4,32.5,30.42,West,271,0.0,6.0,89,0.00,,,0.00,meteohub,2013-01-09 10:14:00,
2013-01-09 05:19:00,35.2,32.4,30.42,West,273,0.0,6.0,89,0.00,,,0.00,meteohub,2013-01-09 10:19:00,
2013-01-09 05:24:00,35.1,32.4,30.43,SW,218,2.0,4.0,90,0.00,,,0.00,meteohub,2013-01-09 10:24:00,
2013-01-09 05:29:00,35.2,32.9,30.43,West,280,2.0,2.0,91,0.00,,,0.00,meteohub,2013-01-09 10:29:00,
2013-01-09 05:34:00,35.2,32.9,30.43,SW,221,1.0,2.0,91,0.00,,,0.00,meteohub,2013-01-09 10:34:00,
2013-01-09 05:39:00,35.1,32.4,30.42,South,179,0.0,2.0,90,0.00,,,0.00,meteohub,2013-01-09 10:39:00,
2013-01-09 05:44:00,35.1,32.4,30.42,WNW,284,1.0,2.0,90,0.00,,,0.00,meteohub,2013-01-09 10:44:00,
2013-01-09 05:49:00,35.1,32.4,30.43,WSW,255,2.0,2.0,90,0.00,,,0.00,meteohub,2013-01-09 10:49:00,
2013-01-09 05:53:00,35.2,32.4,30.43,SSW,194,3.0,3.0,89,0.00,,,0.00,meteohub,2013-01-09 10:53:00,
2013-01-09 05:58:00,35.2,32.5,30.43,WSW,252,4.0,5.0,90,0.00,,,0.00,meteohub,2013-01-09 10:58:00,
2013-01-09 06:03:00,35.2,32.4,30.43,West,263,4.0,5.0,89,0.00,,,0.00,meteohub,2013-01-09 11:03:00,
2013-01-09 06:08:00,35.2,32.4,30.43,West,263,2.0,5.0,89,0.00,,,0.00,meteohub,2013-01-09 11:08:00,
2013-01-09 06:13:00,35.2,32.5,30.44,SW,225,5.0,5.0,90,0.00,,,0.00,meteohub,2013-01-09 11:13:00,
2013-01-09 06:18:00,35.2,32.4,30.44,WSW,248,4.0,6.0,89,0.00,,,0.00,meteohub,2013-01-09 11:18:00,
2013-01-09 06:23:00,35.4,32.2,30.44,WSW,240,2.0,6.0,88,0.00,,,0.00,meteohub,2013-01-09 11:23:00,
2013-01-09 06:28:00,35.4,32.2,30.44,West,264,0.0,6.0,88,0.00,,,0.00,meteohub,2013-01-09 11:28:00,
2013-01-09 06:34:00,35.4,32.2,30.44,West,276,0.0,4.0,88,0.00,,,0.00,meteohub,2013-01-09 11:34:00,
2013-01-09 06:39:00,35.2,32.4,30.45,SW,233,1.0,3.0,89,0.00,,,0.00,meteohub,2013-01-09 11:39:00,
2013-01-09 06:44:00,35.2,32.4,30.45,SW,224,3.0,3.0,89,0.00,,,0.00,meteohub,2013-01-09 11:44:00,
2013-01-09 06:49:00,35.2,32.4,30.45,WSW,249,3.0,3.0,89,0.00,,,0.00,meteohub,2013-01-09 11:49:00,
2013-01-09 06:54:00,35.2,32.4,30.45,WSW,257,3.0,4.0,89,0.00,,,0.00,meteohub,2013-01-09 11:54:00,
2013-01-09 06:59:00,35.2,32.4,30.45,NNE,30,3.0,5.0,89,0.00,,,0.00,meteohub,2013-01-09 11:59:00,
2013-01-09 07:04:00,34.9,32.0,30.44,NNE,27,0.0,5.0,89,0.00,,,0.00,meteohub,2013-01-09 12:04:00,
2013-01-09 07:09:00,34.9,32.0,30.45,NNE,27,0.0,5.0,89,0.00,,,0.00,meteohub,2013-01-09 12:09:00,
2013-01-09 07:14:00,34.5,31.6,30.45,NE,47,0.0,3.0,89,0.00,,,0.00,meteohub,2013-01-09 12:14:00,
2013-01-09 07:19:00,34.3,31.5,30.45,SSE,155,1.0,1.0,89,0.00,,,0.00,meteohub,2013-01-09 12:19:00,
2013-01-09 07:24:00,34.3,31.6,30.45,SSE,150,1.0,1.0,90,0.00,,,0.00,meteohub,2013-01-09 12:24:00,
2013-01-09 07:29:00,34.3,32.0,30.44,SSE,148,0.0,1.0,91,0.00,,,0.00,meteohub,2013-01-09 12:29:00,
2013-01-09 07:34:00,34.0,31.3,30.45,SSE,148,0.0,1.0,90,0.00,,,0.00,meteohub,2013-01-09 12:34:00,
2013-01-09 07:39:00,34.2,31.8,30.45,SSE,148,1.0,1.0,91,0.00,,,0.00,meteohub,2013-01-09 12:39:00,
2013-01-09 07:44:00,34.5,32.2,30.45,SSE,148,1.0,1.0,91,0.00,,,0.00,meteohub,2013-01-09 12:44:00,
2013-01-09 07:49:00,34.9,32.5,30.45,SSE,148,0.0,1.0,91,0.00,,,0.00,meteohub,2013-01-09 12:49:00,
2013-01-09 07:54:00,34.9,32.5,30.45,SW,218,1.0,1.0,91,0.00,,,0.00,meteohub,2013-01-09 12:54:00,
2013-01-09 07:59:00,35.2,32.9,30.45,SW,218,0.0,1.0,91,0.00,,,0.00,meteohub,2013-01-09 12:59:00,
2013-01-09 08:04:00,35.4,33.1,30.46,SSW,207,0.0,1.0,91,0.00,,,0.00,meteohub,2013-01-09 13:04:00,
2013-01-09 08:09:00,36.0,33.6,30.45,SSW,207,1.0,1.0,91,0.00,,,0.00,meteohub,2013-01-09 13:09:00,
2013-01-09 08:14:00,36.1,33.4,30.45,SSW,204,0.0,1.0,90,0.00,,,0.00,meteohub,2013-01-09 13:14:00,
2013-01-09 08:19:00,37.0,34.7,30.45,SSE,165,0.0,1.0,91,0.00,,,0.00,meteohub,2013-01-09 13:19:00,
2013-01-09 08:24:00,37.6,34.9,30.45,SSE,165,0.0,1.0,90,0.00,,,0.00,meteohub,2013-01-09 13:24:00,
2013-01-09 08:29:00,37.8,34.5,30.45,SSE,166,0.0,1.0,88,0.00,,,0.00,meteohub,2013-01-09 13:29:00,
2013-01-09 08:34:00,37.6,34.3,30.45,SSE,167,0.0,1.0,88,0.00,,,0.00,meteohub,2013-01-09 13:34:00,
2013-01-09 08:39:00,37.8,34.9,30.45,SSE,150,0.0,0.0,89,0.00,,,0.00,meteohub,2013-01-09 13:39:00,
2013-01-09 08:44:00,37.8,34.5,30.45,SE,143,0.0,0.0,88,0.00,,,0.00,meteohub,2013-01-09 13:44:00,
2013-01-09 08:49:00,37.6,34.7,30.45,SE,143,1.0,0.0,89,0.00,,,0.00,meteohub,2013-01-09 13:49:00,
2013-01-09 08:54:00,37.6,34.7,30.44,SE,142,0.0,2.0,89,0.00,,,0.00,meteohub,2013-01-09 13:54:00,
2013-01-09 08:59:00,37.0,33.8,30.44,SE,143,0.0,2.0,88,0.00,,,0.00,meteohub,2013-01-09 13:59:00,
2013-01-09 09:04:00,36.9,34.0,30.44,SSE,152,3.0,3.0,89,0.00,,,0.00,meteohub,2013-01-09 14:04:00,
2013-01-09 09:09:00,36.3,33.4,30.44,SE,146,4.0,4.0,89,0.00,,,0.00,meteohub,2013-01-09 14:09:00,
2013-01-09 09:14:00,36.3,33.6,30.44,SE,141,2.0,3.0,90,0.00,,,0.00,meteohub,2013-01-09 14:14:00,
2013-01-09 09:19:00,36.3,34.0,30.44,SSE,160,2.0,4.0,91,0.00,,,0.00,meteohub,2013-01-09 14:19:00,
2013-01-09 09:24:00,36.9,34.5,30.44,SSE,160,0.0,4.0,91,0.00,,,0.00,meteohub,2013-01-09 14:24:00,
2013-01-09 09:29:00,37.2,35.1,30.44,SSE,159,0.0,3.0,92,0.00,,,0.00,meteohub,2013-01-09 14:29:00,
2013-01-09 09:34:00,37.8,35.4,30.45,SSE,159,0.0,2.0,91,0.00,,,0.00,meteohub,2013-01-09 14:34:00,
2013-01-09 09:39:00,38.3,36.0,30.44,SSE,159,0.0,1.0,91,0.00,,,0.00,meteohub,2013-01-09 14:39:00,
2013-01-09 09:44:00,38.7,36.0,30.44,SSE,159,0.0,0.0,90,0.00,,,0.00,meteohub,2013-01-09 14:44:00,
2013-01-09 09:49:00,38.7,35.4,30.44,SSE,157,2.0,0.0,88,0.00,,,0.00,meteohub,2013-01-09 14:49:00,
2013-01-09 09:54:00,38.3,34.7,30.44,SE,146,1.0,1.0,87,0.00,,,0.00,meteohub,2013-01-09 14:54:00,
2013-01-09 09:59:00,38.3,34.7,30.44,SSE,155,2.0,2.0,87,0.00,,,0.00,meteohub,2013-01-09 14:59:00,
2013-01-09 10:04:00,38.1,34.5,30.44,SSE,153,2.0,2.0,87,0.00,,,0.00,meteohub,2013-01-09 15:04:00,
2013-01-09 10:09:00,38.3,35.1,30.44,SSE,158,1.0,3.0,88,0.00,,,0.00,meteohub,2013-01-09 15:09:00,
2013-01-09 10:14:00,38.7,35.8,30.43,SSE,153,0.0,3.0,89,0.00,,,0.00,meteohub,2013-01-09 15:14:00,
2013-01-09 10:19:00,39.4,36.5,30.43,SSE,153,0.0,3.0,89,0.00,,,0.00,meteohub,2013-01-09 15:19:00,
2013-01-09 10:24:00,39.9,36.9,30.43,SSE,153,0.0,3.0,89,0.00,,,0.00,meteohub,2013-01-09 15:24:00,
2013-01-09 10:30:00,39.9,36.1,30.42,SSE,153,0.0,1.0,86,0.00,,,0.00,meteohub,2013-01-09 15:30:00,
2013-01-09 10:35:00,39.9,36.1,30.41,SSE,153,0.0,0.0,86,0.00,,,0.00,meteohub,2013-01-09 15:35:00,
2013-01-09 10:40:00,39.9,35.8,30.41,SE,143,1.0,0.0,85,0.00,,,0.00,meteohub,2013-01-09 15:40:00,
2013-01-09 10:45:00,39.7,35.6,30.40,SE,146,2.0,0.0,85,0.00,,,0.00,meteohub,2013-01-09 15:45:00,
2013-01-09 10:50:00,39.7,36.0,30.40,SE,140,2.0,2.0,86,0.00,,,0.00,meteohub,2013-01-09 15:50:00,
2013-01-09 10:55:00,39.9,35.8,30.40,SE,144,3.0,3.0,85,0.00,,,0.00,meteohub,2013-01-09 15:55:00,
2013-01-09 11:00:00,40.3,35.8,30.39,SE,139,3.0,3.0,84,0.00,,,0.00,meteohub,2013-01-09 16:00:00,
2013-01-09 11:07:00,40.3,35.8,30.39,SE,139,4.0,4.0,84,0.00,,,0.00,meteohub,2013-01-09 16:07:00,
2013-01-09 11:12:00,39.9,35.8,30.38,SE,142,5.0,5.0,85,0.00,,,0.00,meteohub,2013-01-09 16:12:00,
2013-01-09 11:17:00,39.9,35.8,30.38,SE,144,4.0,5.0,85,0.00,,,0.00,meteohub,2013-01-09 16:17:00,
2013-01-09 11:22:00,39.9,35.8,30.37,SE,140,5.0,5.0,85,0.00,,,0.00,meteohub,2013-01-09 16:22:00,
2013-01-09 11:27:00,40.3,35.6,30.37,SSE,148,4.0,5.0,83,0.00,,,0.00,meteohub,2013-01-09 16:27:00,
2013-01-09 11:32:00,40.6,35.6,30.36,SE,125,3.0,5.0,82,0.00,,,0.00,meteohub,2013-01-09 16:32:00,
2013-01-09 11:37:00,41.4,35.6,30.36,SE,139,3.0,5.0,80,0.00,,,0.00,meteohub,2013-01-09 16:37:00,
2013-01-09 11:42:00,41.5,35.2,30.35,SE,139,4.0,5.0,78,0.00,,,0.00,meteohub,2013-01-09 16:42:00,
2013-01-09 11:47:00,42.1,35.8,30.34,SE,141,4.0,5.0,78,0.00,,,0.00,meteohub,2013-01-09 16:47:00,
2013-01-09 11:52:00,42.1,35.8,30.33,SE,128,5.0,5.0,78,0.00,,,0.00,meteohub,2013-01-09 16:52:00,
2013-01-09 11:57:00,42.3,35.2,30.33,SE,140,5.0,6.0,76,0.00,,,0.00,meteohub,2013-01-09 16:57:00,
2013-01-09 12:01:00,42.3,34.9,30.32,SE,139,5.0,6.0,75,0.00,,,0.00,meteohub,2013-01-09 17:01:00,
2013-01-09 12:06:00,42.3,34.9,30.33,SE,140,5.0,6.0,75,0.00,,,0.00,meteohub,2013-01-09 17:06:00,
2013-01-09 12:11:00,42.1,34.3,30.31,SE,140,6.0,6.0,74,0.00,,,0.00,meteohub,2013-01-09 17:11:00,
2013-01-09 12:16:00,42.3,34.2,30.31,SE,134,6.0,7.0,73,0.00,,,0.00,meteohub,2013-01-09 17:16:00,
2013-01-09 12:21:00,42.3,34.2,30.30,SE,140,7.0,8.0,73,0.00,,,0.00,meteohub,2013-01-09 17:21:00,
2013-01-09 12:26:00,41.9,35.2,30.30,SE,143,8.0,8.0,77,0.00,,,0.00,meteohub,2013-01-09 17:26:00,
2013-01-09 12:31:00,41.0,35.2,30.30,SE,142,6.0,8.0,80,0.00,,,0.00,meteohub,2013-01-09 17:31:00,
2013-01-09 12:36:00,40.6,34.9,30.30,SE,146,5.0,8.0,80,0.00,,,0.00,meteohub,2013-01-09 17:36:00,
2013-01-09 12:41:00,40.8,35.1,30.29,SSE,155,6.0,8.0,80,0.00,,,0.00,meteohub,2013-01-09 17:41:00,
2013-01-09 12:46:00,40.8,35.1,30.29,SSE,150,5.0,7.0,80,0.00,,,0.00,meteohub,2013-01-09 17:46:00,
2013-01-09 12:51:00,40.8,35.1,30.29,SSE,153,4.0,6.0,80,0.00,,,0.00,meteohub,2013-01-09 17:51:00,
2013-01-09 12:56:00,40.8,35.1,30.30,SSW,203,4.0,6.0,80,0.00,,,0.00,meteohub,2013-01-09 17:56:00,
2013-01-09 13:01:00,40.6,35.6,30.30,West,265,3.0,5.0,82,0.00,,,0.00,meteohub,2013-01-09 18:01:00,
2013-01-09 13:06:00,41.2,35.2,30.29,WSW,243,3.0,5.0,79,0.00,,,0.00,meteohub,2013-01-09 18:06:00,
2013-01-09 13:11:00,41.9,35.6,30.29,SW,233,6.0,6.0,78,0.00,,,0.00,meteohub,2013-01-09 18:11:00,
2013-01-09 13:16:00,42.4,35.4,30.28,West,262,7.0,7.0,76,0.00,,,0.00,meteohub,2013-01-09 18:16:00,
2013-01-09 13:21:00,42.6,35.6,30.27,West,263,7.0,8.0,76,0.00,,,0.00,meteohub,2013-01-09 18:21:00,
2013-01-09 13:26:00,42.4,35.8,30.28,WSW,255,8.0,9.0,77,0.00,,,0.00,meteohub,2013-01-09 18:26:00,
2013-01-09 13:31:00,42.6,36.3,30.27,WSW,241,9.0,9.0,78,0.00,,,0.00,meteohub,2013-01-09 18:31:00,
2013-01-09 13:36:00,42.6,36.3,30.27,WSW,250,7.0,10.0,78,0.00,,,0.00,meteohub,2013-01-09 18:36:00,
2013-01-09 13:41:00,42.6,36.5,30.27,West,263,8.0,10.0,79,0.00,,,0.00,meteohub,2013-01-09 18:41:00,
2013-01-09 13:42:00,42.8,36.7,30.27,West,260,7.0,10.0,79,0.00,,,0.00,meteohub,2013-01-09 18:42:00,
2013-01-09 13:44:00,43.0,36.7,30.27,West,265,6.0,10.0,78,0.00,,,0.00,meteohub,2013-01-09 18:44:00,
2013-01-09 13:45:00,43.0,36.9,30.27,West,268,6.0,10.0,79,0.00,,,0.00,meteohub,2013-01-09 18:45:00,
2013-01-09 13:48:00,43.2,37.0,30.27,West,273,7.0,9.0,79,0.00,,,0.00,meteohub,2013-01-09 18:48:00,
2013-01-09 13:49:00,43.2,37.0,30.27,West,268,8.0,9.0,79,0.00,,,0.00,meteohub,2013-01-09 18:49:00,
2013-01-09 13:54:00,43.5,37.4,30.27,WNW,285,6.0,9.0,79,0.00,,,0.00,meteohub,2013-01-09 18:54:00,
2013-01-09 13:59:00,43.9,37.8,30.27,West,273,6.0,9.0,79,0.00,,,0.00,meteohub,2013-01-09 18:59:00,
2013-01-09 14:04:00,44.1,38.3,30.29,West,266,8.0,9.0,80,0.00,,,0.00,meteohub,2013-01-09 19:04:00,
2013-01-09 14:09:00,44.2,38.8,30.29,WNW,294,7.0,9.0,81,0.00,,,0.00,meteohub,2013-01-09 19:09:00,
2013-01-09 14:14:00,44.4,39.2,30.29,WSW,245,11.0,11.0,82,0.00,,,0.00,meteohub,2013-01-09 19:14:00,
2013-01-09 14:19:00,44.8,39.9,30.29,West,265,9.0,10.0,83,0.00,,,0.00,meteohub,2013-01-09 19:19:00,
2013-01-09 14:24:00,45.0,40.1,30.29,WSW,256,12.0,13.0,83,0.00,,,0.00,meteohub,2013-01-09 19:24:00,
2013-01-09 14:29:00,45.1,40.3,30.28,SW,231,10.0,13.0,83,0.00,,,0.00,meteohub,2013-01-09 19:29:00,
2013-01-09 14:34:00,44.8,39.9,30.27,SW,221,11.0,13.0,83,0.00,,,0.00,meteohub,2013-01-09 19:34:00,
2013-01-09 14:39:00,43.9,39.4,30.27,SW,221,10.0,13.0,84,0.00,,,0.00,meteohub,2013-01-09 19:39:00,
2013-01-09 14:44:00,43.9,39.7,30.26,SSW,211,10.0,12.0,85,0.00,,,0.00,meteohub,2013-01-09 19:44:00,
2013-01-09 14:49:00,44.2,39.7,30.25,SW,218,12.0,12.0,84,0.00,,,0.00,meteohub,2013-01-09 19:49:00,
2013-01-09 14:54:00,44.8,39.6,30.25,SW,221,13.0,13.0,82,0.00,,,0.00,meteohub,2013-01-09 19:54:00,
2013-01-09 14:59:00,45.1,39.4,30.25,SW,228,12.0,14.0,80,0.00,,,0.00,meteohub,2013-01-09 19:59:00,
2013-01-09 15:04:00,45.1,39.0,30.25,SW,236,13.0,16.0,79,0.00,,,0.00,meteohub,2013-01-09 20:04:00,
2013-01-09 15:09:00,44.2,38.5,30.25,SW,233,11.0,18.0,80,0.00,,,0.00,meteohub,2013-01-09 20:09:00,
2013-01-09 15:14:00,44.2,38.5,30.24,SW,233,12.0,18.0,80,0.00,,,0.00,meteohub,2013-01-09 20:14:00,
2013-01-09 15:19:00,44.4,38.3,30.24,SW,232,13.0,18.0,79,0.00,,,0.00,meteohub,2013-01-09 20:19:00,
2013-01-09 15:24:00,44.4,38.3,30.22,SW,217,13.0,14.0,79,0.00,,,0.00,meteohub,2013-01-09 20:24:00,
2013-01-09 15:29:00,44.8,38.3,30.22,SW,221,13.0,14.0,78,0.00,,,0.00,meteohub,2013-01-09 20:29:00,
2013-01-09 15:34:00,44.8,38.3,30.20,SSW,194,12.0,14.0,78,0.00,,,0.00,meteohub,2013-01-09 20:34:00,
2013-01-09 15:39:00,44.8,38.3,30.20,SW,218,12.0,15.0,78,0.00,,,0.00,meteohub,2013-01-09 20:39:00,
2013-01-09 15:44:00,44.8,38.7,30.20,SW,221,13.0,15.0,79,0.00,,,0.00,meteohub,2013-01-09 20:44:00,
2013-01-09 15:49:00,44.8,38.3,30.19,SW,214,14.0,15.0,78,0.00,,,0.00,meteohub,2013-01-09 20:49:00,
2013-01-09 15:54:00,45.0,38.1,30.19,SW,221,15.0,15.0,77,0.00,,,0.00,meteohub,2013-01-09 20:54:00,
2013-01-09 15:59:00,44.8,37.8,30.18,SSW,205,11.0,15.0,76,0.00,,,0.00,meteohub,2013-01-09 20:59:00,
2013-01-09 16:04:00,44.8,37.8,30.15,SSW,194,15.0,17.0,76,0.00,,,0.00,meteohub,2013-01-09 21:04:00,
2013-01-09 16:09:00,44.8,37.8,30.18,SW,218,18.0,18.0,76,0.00,,,0.00,meteohub,2013-01-09 21:09:00,
2013-01-09 16:14:00,44.8,37.8,30.16,SSW,203,14.0,19.0,76,0.00,,,0.00,meteohub,2013-01-09 21:14:00,
2013-01-09 16:19:00,45.1,37.9,30.15,SW,218,21.0,21.0,76,0.00,,,0.00,meteohub,2013-01-09 21:19:00,
2013-01-09 16:25:00,45.7,38.3,30.17,SW,221,16.0,24.0,75,0.00,,,0.00,meteohub,2013-01-09 21:25:00,
2013-01-09 16:30:00,45.7,38.3,30.15,SW,221,20.0,25.0,75,0.00,,,0.00,meteohub,2013-01-09 21:30:00,
2013-01-09 16:35:00,45.7,38.5,30.12,SSW,210,20.0,29.0,76,0.00,,,0.00,meteohub,2013-01-09 21:35:00,
2013-01-09 16:40:00,45.3,38.5,30.15,SW,226,21.0,29.0,77,0.00,,,0.00,meteohub,2013-01-09 21:40:00,
2013-01-09 16:45:00,45.3,38.8,30.15,SW,221,18.0,29.0,78,0.00,,,0.00,meteohub,2013-01-09 21:45:00,
2013-01-09 16:50:00,44.8,39.0,30.17,West,264,24.0,29.0,80,0.00,,,0.00,meteohub,2013-01-09 21:50:00,
2013-01-09 16:55:00,44.4,39.2,30.15,SW,225,21.0,30.0,82,0.00,,,0.00,meteohub,2013-01-09 21:55:00,
2013-01-09 17:00:00,44.2,39.4,30.15,SW,228,21.0,30.0,83,0.00,,,0.00,meteohub,2013-01-09 22:00:00,
2013-01-09 17:05:00,44.4,39.6,30.15,SW,228,18.0,30.0,83,0.00,,,0.00,meteohub,2013-01-09 22:05:00,
2013-01-09 17:10:00,44.8,39.9,30.15,SW,232,21.0,26.0,83,0.00,,,0.00,meteohub,2013-01-09 22:10:00,
2013-01-09 17:15:00,44.4,39.6,30.16,WSW,239,18.0,27.0,83,0.00,,,0.00,meteohub,2013-01-09 22:15:00,
2013-01-09 17:20:00,43.9,39.4,30.15,SW,236,17.0,27.0,84,0.00,,,0.00,meteohub,2013-01-09 22:20:00,
2013-01-09 17:25:00,43.5,39.4,30.15,SW,236,18.0,27.0,85,0.00,,,0.00,meteohub,2013-01-09 22:25:00,
2013-01-09 17:30:00,42.8,38.8,30.15,WSW,257,15.0,26.0,86,0.00,,,0.00,meteohub,2013-01-09 22:30:00,
2013-01-09 17:35:00,42.6,39.0,30.16,WSW,256,15.0,24.0,87,0.00,,,0.00,meteohub,2013-01-09 22:35:00,
2013-01-09 17:40:00,43.2,39.2,30.16,WNW,295,18.0,24.0,86,0.00,,,0.00,meteohub,2013-01-09 22:40:00,
2013-01-09 17:45:00,43.9,39.7,30.16,WSW,258,20.0,20.0,85,0.00,,,0.00,meteohub,2013-01-09 22:45:00,
2013-01-09 17:50:00,44.2,40.1,30.17,West,274,19.0,23.0,85,0.00,,,0.00,meteohub,2013-01-09 22:50:00,
2013-01-09 17:55:00,44.4,39.9,30.17,West,264,19.0,26.0,84,0.00,,,0.00,meteohub,2013-01-09 22:55:00,
2013-01-09 18:00:00,44.8,39.9,30.17,West,266,14.0,26.0,83,0.00,,,0.00,meteohub,2013-01-09 23:00:00,
2013-01-09 18:05:00,44.8,40.3,30.17,West,260,10.0,26.0,84,0.00,,,0.00,meteohub,2013-01-09 23:05:00,
2013-01-09 18:10:00,44.8,39.9,30.18,WNW,293,9.0,23.0,83,0.00,,,0.00,meteohub,2013-01-09 23:10:00,
2013-01-09 18:15:00,45.1,40.6,30.17,WSW,249,17.0,23.0,84,0.00,,,0.00,meteohub,2013-01-09 23:15:00,
2013-01-09 18:20:00,45.3,40.5,30.17,NNE,22,9.0,23.0,83,0.00,,,0.00,meteohub,2013-01-09 23:20:00,
2013-01-09 18:25:00,45.3,40.5,30.17,WNW,302,12.0,18.0,83,0.00,,,0.00,meteohub,2013-01-09 23:25:00,
2013-01-09 18:30:00,45.3,40.5,30.17,West,269,13.0,18.0,83,0.00,,,0.00,meteohub,2013-01-09 23:30:00,
2013-01-09 18:35:00,45.5,40.6,30.16,West,262,13.0,18.0,83,0.00,,,0.00,meteohub,2013-01-09 23:35:00,
2013-01-09 18:40:00,45.5,40.3,30.16,WSW,252,13.0,18.0,82,0.00,,,0.00,meteohub,2013-01-09 23:40:00,
2013-01-09 18:45:00,45.7,40.8,30.16,West,269,16.0,18.0,83,0.00,,,0.00,meteohub,2013-01-09 23:45:00,
2013-01-09 18:50:00,46.8,41.2,30.16,West,262,17.0,21.0,81,0.00,,,0.00,meteohub,2013-01-09 23:50:00,
2013-01-09 18:55:00,47.7,41.5,30.16,West,262,23.0,27.0,79,0.00,,,0.00,meteohub,2013-01-09 23:55:00,
2013-01-09 19:00:00,48.4,41.9,30.16,West,266,24.0,31.0,78,0.00,,,0.00,meteohub,2013-01-10 00:00:00,
2013-01-09 19:05:00,48.6,41.4,30.15,WSW,253,22.0,34.0,76,0.00,,,0.00,meteohub,2013-01-10 00:05:00,
2013-01-09 19:10:00,48.6,41.4,30.16,West,270,25.0,34.0,76,0.00,,,0.00,meteohub,2013-01-10 00:10:00,
2013-01-09 19:15:00,48.7,41.5,30.17,West,267,23.0,33.0,76,0.00,,,0.00,meteohub,2013-01-10 00:15:00,
2013-01-09 19:20:00,49.3,41.7,30.17,WNW,297,23.0,31.0,75,0.00,,,0.00,meteohub,2013-01-10 00:20:00,
2013-01-09 19:25:00,49.6,41.4,30.17,WNW,288,23.0,35.0,73,0.00,,,0.00,meteohub,2013-01-10 00:25:00,
2013-01-09 19:30:00,49.6,41.4,30.16,West,264,27.0,37.0,73,0.00,,,0.00,meteohub,2013-01-10 00:30:00,
2013-01-09 19:35:00,49.3,41.4,30.17,WNW,297,22.0,37.0,74,0.00,,,0.00,meteohub,2013-01-10 00:35:00,
2013-01-09 19:40:00,49.1,41.2,30.17,WSW,253,30.0,37.0,74,0.00,,,0.00,meteohub,2013-01-10 00:40:00,
2013-01-09 19:45:00,49.1,41.2,30.17,WNW,300,25.0,36.0,74,0.00,,,0.00,meteohub,2013-01-10 00:45:00,
2013-01-09 19:50:00,49.1,41.2,30.17,WSW,252,25.0,36.0,74,0.00,,,0.00,meteohub,2013-01-10 00:50:00,
2013-01-09 19:55:00,48.9,41.0,30.17,NW,316,30.0,38.0,74,0.00,,,0.00,meteohub,2013-01-10 00:55:00,
2013-01-09 20:00:00,48.7,40.8,30.18,West,274,25.0,41.0,74,0.00,,,0.00,meteohub,2013-01-10 01:00:00,
2013-01-09 20:05:00,48.4,40.8,30.17,NNW,340,27.0,41.0,75,0.00,,,0.00,meteohub,2013-01-10 01:05:00,
2013-01-09 20:10:00,48.4,40.8,30.17,WNW,285,22.0,35.0,75,0.00,,,0.00,meteohub,2013-01-10 01:10:00,
2013-01-09 20:15:00,48.2,40.6,30.17,West,277,20.0,38.0,75,0.00,,,0.00,meteohub,2013-01-10 01:15:00,
2013-01-09 20:20:00,47.8,40.3,30.17,WSW,239,19.0,40.0,75,0.00,,,0.00,meteohub,2013-01-10 01:20:00,
2013-01-09 20:25:00,47.7,40.5,30.17,WNW,291,32.0,40.0,76,0.00,,,0.00,meteohub,2013-01-10 01:25:00,
2013-01-09 20:30:00,47.8,40.3,30.17,West,267,21.0,40.0,75,0.00,,,0.00,meteohub,2013-01-10 01:30:00,
2013-01-09 20:35:00,47.7,40.1,30.17,NNW,338,24.0,39.0,75,0.00,,,0.00,meteohub,2013-01-10 01:35:00,
2013-01-09 20:40:00,47.5,40.3,30.17,West,273,19.0,39.0,76,0.00,,,0.00,meteohub,2013-01-10 01:40:00,
2013-01-09 20:45:00,47.1,40.3,30.17,West,274,26.0,38.0,77,0.00,,,0.00,meteohub,2013-01-10 01:45:00,
2013-01-09 20:50:00,47.1,40.3,30.17,West,277,31.0,38.0,77,0.00,,,0.00,meteohub,2013-01-10 01:50:00,
2013-01-09 20:55:00,47.1,39.9,30.17,West,275,26.0,38.0,76,0.00,,,0.00,meteohub,2013-01-10 01:55:00,
2013-01-09 21:00:00,46.9,40.1,30.17,WNW,303,31.0,38.0,77,0.00,,,0.00,meteohub,2013-01-10 02:00:00,
2013-01-09 21:05:00,47.1,40.3,30.17,West,281,31.0,40.0,77,0.00,,,0.00,meteohub,2013-01-10 02:05:00,
2013-01-09 21:10:00,47.1,39.9,30.17,West,262,28.0,40.0,76,0.00,,,0.00,meteohub,2013-01-10 02:10:00,
2013-01-09 21:15:00,46.8,39.9,30.17,WSW,243,29.0,41.0,77,0.00,,,0.00,meteohub,2013-01-10 02:15:00,
2013-01-09 21:20:00,46.4,39.9,30.17,WNW,297,33.0,41.0,78,0.00,,,0.00,meteohub,2013-01-10 02:20:00,
2013-01-09 21:25:00,46.0,39.6,30.17,WNW,303,35.0,35.0,78,0.00,,,0.00,meteohub,2013-01-10 02:25:00,
2013-01-09 21:30:00,46.0,39.6,30.18,WSW,238,29.0,38.0,78,0.00,,,0.00,meteohub,2013-01-10 02:30:00,
2013-01-09 21:35:00,46.0,39.9,30.17,West,262,19.0,38.0,79,0.00,,,0.00,meteohub,2013-01-10 02:35:00,
2013-01-09 21:40:00,45.9,39.7,30.17,WSW,252,25.0,38.0,79,0.00,,,0.00,meteohub,2013-01-10 02:40:00,
2013-01-09 21:45:00,45.7,39.6,30.18,West,271,27.0,33.0,79,0.00,,,0.00,meteohub,2013-01-10 02:45:00,
2013-01-09 21:50:00,45.7,39.6,30.18,West,264,15.0,35.0,79,0.00,,,0.00,meteohub,2013-01-10 02:50:00,
2013-01-09 21:55:00,45.7,39.6,30.18,West,276,25.0,36.0,79,0.00,,,0.00,meteohub,2013-01-10 02:55:00,
2013-01-09 22:00:00,45.7,39.2,30.18,NW,316,17.0,36.0,78,0.00,,,0.00,meteohub,2013-01-10 03:00:00,
2013-01-09 22:05:00,45.9,39.4,30.18,WNW,294,27.0,36.0,78,0.00,,,0.00,meteohub,2013-01-10 03:05:00,
2013-01-09 22:10:00,45.7,39.6,30.19,WSW,240,20.0,39.0,79,0.00,,,0.00,meteohub,2013-01-10 03:10:00,
2013-01-09 22:15:00,45.7,39.2,30.19,West,264,24.0,39.0,78,0.00,,,0.00,meteohub,2013-01-10 03:15:00,
2013-01-09 22:20:00,45.7,39.2,30.19,NW,308,24.0,36.0,78,0.00,,,0.00,meteohub,2013-01-10 03:20:00,
2013-01-09 22:25:00,45.7,39.2,30.19,WNW,285,31.0,35.0,78,0.00,,,0.00,meteohub,2013-01-10 03:25:00,
2013-01-09 22:30:00,45.7,39.2,30.19,West,274,25.0,35.0,78,0.00,,,0.00,meteohub,2013-01-10 03:30:00,
2013-01-09 22:35:00,45.5,39.0,30.19,NE,39,23.0,35.0,78,0.00,,,0.00,meteohub,2013-01-10 03:35:00,
2013-01-09 22:40:00,45.7,38.8,30.18,SW,233,27.0,34.0,77,0.00,,,0.00,meteohub,2013-01-10 03:40:00,
2013-01-09 22:45:00,45.9,39.0,30.18,West,275,28.0,38.0,77,0.00,,,0.00,meteohub,2013-01-10 03:45:00,
2013-01-09 22:50:00,45.9,38.7,30.19,WNW,293,21.0,38.0,76,0.00,,,0.00,meteohub,2013-01-10 03:50:00,
2013-01-09 22:55:00,46.0,38.8,30.19,NW,316,26.0,38.0,76,0.00,,,0.00,meteohub,2013-01-10 03:55:00,
2013-01-09 23:00:00,46.0,38.5,30.19,WNW,285,23.0,35.0,75,0.00,,,0.00,meteohub,2013-01-10 04:00:00,
2013-01-09 23:05:00,46.0,38.5,30.19,West,273,32.0,36.0,75,0.00,,,0.00,meteohub,2013-01-10 04:05:00,
2013-01-09 23:10:00,46.2,38.1,30.19,West,280,23.0,36.0,73,0.00,,,0.00,meteohub,2013-01-10 04:10:00,
2013-01-09 23:15:00,46.4,38.3,30.19,WSW,245,30.0,36.0,73,0.00,,,0.00,meteohub,2013-01-10 04:15:00,
2013-01-09 23:20:00,46.6,38.1,30.19,NW,312,29.0,42.0,72,0.00,,,0.00,meteohub,2013-01-10 04:20:00,
2013-01-09 23:25:00,46.6,37.8,30.19,West,262,30.0,42.0,71,0.00,,,0.00,meteohub,2013-01-10 04:25:00,
2013-01-09 23:30:00,46.2,37.4,30.19,WNW,293,24.0,42.0,71,0.00,,,0.00,meteohub,2013-01-10 04:30:00,
2013-01-09 23:35:00,46.6,37.4,30.19,NW,326,26.0,36.0,70,0.00,,,0.00,meteohub,2013-01-10 04:35:00,
2013-01-09 23:40:00,46.6,37.4,30.19,West,268,30.0,38.0,70,0.00,,,0.00,meteohub,2013-01-10 04:40:00,
2013-01-09 23:45:00,46.2,37.4,30.19,WNW,295,24.0,38.0,71,0.00,,,0.00,meteohub,2013-01-10 04:45:00,
2013-01-09 23:51:00,46.2,37.4,30.19,WNW,287,27.0,36.0,71,0.00,,,0.00,meteohub,2013-01-10 04:51:00,
2013-01-09 23:56:00,46.2,37.4,30.19,WNW,285,28.0,41.0,71,0.00,,,0.00,meteohub,2013-01-10 04:56:00,